Location: Santa Clara
(37.3540°N, 121.9540°W)
Time: 22:17:18
(UTC-08:00)

Hubble Space Telescope - Visible Passes

Search period start: 24 January 2022 00:00
Search period end: 03 February 2022 00:00
Orbit: 535 x 538 km, 28.5° (Epoch: 24 January)

Date Brightness Start Highest point End Pass type
(mag) Time Alt. Az. Time Alt. Az. Time Alt. Az.
30 Jan 3.3 18:29:16 10° SSE 18:29:32 10° SSE 18:29:47 10° SSE visible
30 Jan 3.7 20:06:54 10° SW 20:07:12 11° SW 20:07:12 11° SW visible
31 Jan 3.1 18:16:29 10° S 18:18:08 12° SSE 18:19:46 10° SE visible
31 Jan 3.2 19:55:26 10° SW 19:56:39 16° SSW 19:56:39 16° SSW visible
01 Feb 3.1 18:04:32 10° SSW 18:06:44 14° SSE 18:08:57 10° SE visible
01 Feb 2.8 19:44:00 10° SW 19:46:05 20° SSW 19:46:05 20° SSW visible
02 Feb 2.5 19:32:37 10° SW 19:35:31 23° S 19:35:31 23° S visible
